Regional Weather Roundup
Issued by NWS Goodland, KS

Home | Current Version | Previous Version | Graphics & Text | Print | Product List | Glossary On
Versions: 1 2 3 4 5 6 7 8 9 10 11 12 13 14 15 16 17 18 19 20 21 22 23 24 25 26 27 28 29 30 31 32 33 34 35 36 37 38 39 40 41 42 43 44 45 46 47 48 49 50
917
ASUS43 KGLD 211559
RWRGLD

GOODLAND FORECAST AREA HOURLY WEATHER ROUNDUP
NATIONAL WEATHER SERVICE GOODLAND KS
900 AM MST SAT JAN 21 2017

...OFFICIAL OBSERVATIONS...

CITY           SKY/WX    TMP DP  RH WIND       PRES   REMARKS
GOODLAND KS    SUNNY     33  30  88 CALM      29.41F
HILL CITY KS   SUNNY     36  32  85 NW5       29.46S
IMPERIAL NEB   SUNNY     33  26  75 W5        29.45R
MCCOOK NEB     SUNNY     34  30  85 W10       29.45S
AKRON CO       SUNNY     34  25  69 SE12      29.40R
BURLINGTON CO  CLOUDY    34  30  85 SE5       29.40F
LIMON CO       FOG       24  24 100 SW3       29.39R VSB 1
$$

...UNOFFICIAL OBSERVATIONS...

CITY           SKY/WX    TMP DP  RH WIND       PRES   REMARKS
LENORA KS        N/A     37  32  82 CALM        N/A
NORTON KS      SUNNY     34  28  80 CALM      29.45R
SHARON SPRINGS   N/A     32  31  97 CALM        N/A
TRENTON NEB      N/A     35  32  89 CALM        N/A
KIT CARSON CO    N/A     33  30  88 CALM        N/A
YUMA CO        FAIR      28  25  86 SW5       29.41S
$$




USA.gov is the U.S. government's official web portal to all federal, state and local government web resources and services.